{"data":{"norad_id":63585,"epoch":"2026-05-24T23:37:31.384992Z","epoch_age_seconds":66460,"freshness":"FRESH","line1":"1 63585U 25076S   26144.98439103  .00010397  00000+0  38673-3 0  9990","line2":"2 63585  42.9983 250.3905 0001016 271.3047  88.7688 15.27585522 63501","mean_motion":15.27585522,"eccentricity":0.0001016,"inclination_deg":42.9983,"raan_deg":250.3905,"arg_perigee_deg":271.3047,"mean_anomaly_deg":88.7688,"bstar":0.00038673,"rev_number":6350,"period_min":94.266407953034,"perigee_km":482.33546640751,"apogee_km":483.72965606235,"semimajor_km":6861.1695612349,"source":"CELESTRAK","updated_at":"2026-05-25T13:38:20.048949Z"}}